Location: Wytheville
(36.9480°N, 81.0850°W)
Time: 22:15:57

N. Korean satellite - Visible Passes

Search period start: 17 March 2018 00:00
Search period end: 27 March 2018 00:00
Orbit: 460 x 512 km, 97.2° (Epoch: 17 March)

Date Brightness Start Highest point End Pass type
(mag) Time Alt. Az. Time Alt. Az. Time Alt. Az.
18 Mar 10.1 07:07:11 10° NE 07:09:31 16° E 07:11:50 10° SE visible
19 Mar 10.2 20:24:52 10° WSW 20:26:25 12° W 20:27:59 10° WNW visible
20 Mar 9.4 19:59:25 10° SSW 20:02:27 24° W 20:05:31 10° NW visible
23 Mar 10.1 20:22:49 10° WSW 20:24:35 13° W 20:26:23 10° WNW visible
